Flag for India Weather past 2 weeks in Varanasi, Uttar Pradesh, India

Now
82 °F

Light rain. Partly cloudy.


Feels Like: 94 °F
Forecast: 83 / 96 °F
Wind: 6 mph from Northeast

Location: Varanasi / Babatpur

Current Time: Jul 29, 2014 at 11:05:54 PM

Latest Report: Jul 29, 2014 at 10:00 PM


Visibility: 3 mi

Pressure: 29.53 "Hg

Humidity: 94%

Dew point: 81 °F

Location of VaranasiLocation

Historic Weather in Varanasi — Graph

°F

Varanasi temperature yesterday

Maximum temperature yesterday: 95 °F (at 1:00 PM)
Minimum temperature yesterday: 79 °F (at 4:00 AM)
Average temperature yesterday: 87 °F

Past Weeks' High & Low Weather Summary

 TemperatureHumidityPressure
High97 °F (Jul 17, 1:00 PM)100% (Jul 17, 6:00 PM)29.74 "Hg (Jul 17, 6:00 PM)
Low77 °F (Jul 24, 4:00 AM)56% (Jul 17, 1:00 PM)29.33 "Hg (Jul 19, 4:00 PM)
Average87 °F79%29.50 "Hg
* Reported Jul 14 9:00 PM — Jul 29 9:00 PM, Varanasi, Weather by CustomWeather, © 2014

Note: Actual official high and low records may vary slightly from our data, if they occured in-between our weather recording intervals... More about our weather records

Advertising

Varanasi weather history for previous 24 hours

 ConditionsComfort  
Time TempWeatherWind HumidityBarometerVisibility
9:00 PM
Jul 29
84 °FLight rain. Partly cloudy.10 mph94%29.53 "Hg3 mi
8:00 PM86 °FPartly cloudy.6 mph84%29.50 "Hg3 mi
7:00 PM90 °FScattered clouds.5 mph75%29.50 "Hg3 mi
6:00 PM90 °FScattered clouds.6 mph75%29.47 "Hg4 mi
5:00 PM95 °FScattered clouds.6 mph60%29.45 "Hg4 mi
4:00 PM93 °FScattered clouds.8 mph67%29.45 "Hg4 mi
3:00 PM93 °FScattered clouds.8 mph67%29.47 "Hg4 mi
2:00 PM95 °FScattered clouds.8 mph63%29.50 "Hg4 mi
1:00 PM95 °FScattered clouds.8 mph63%29.53 "Hg4 mi
12:00 PM93 °FScattered clouds.6 mph67%29.56 "Hg3 mi
11:00 AM91 °FScattered clouds.9 mph67%29.56 "Hg3 mi
10:00 AM90 °FScattered clouds.9 mph71%29.56 "Hg3 mi
9:00 AM90 °FScattered clouds.10 mph71%29.56 "Hg2 mi
8:00 AM86 °FHaze.12 mph79%29.53 "Hg2 mi
7:00 AM86 °FHaze.9 mph79%29.53 "Hg2 mi
6:00 AM84 °FScattered clouds.6 mph84%29.53 "Hg2 mi
5:00 AM84 °FPartly cloudy.3 mph84%29.50 "Hg2 mi
4:00 AM84 °FHaze.3 mph84%29.50 "Hg2 mi
12:00 AM86 °FHaze.2 mph79%29.50 "Hg2 mi
11:00 PM
Jul 28
86 °FHaze.2 mph79%29.50 "Hg2 mi
Weather by CustomWeather, © 2014

See weather overviewHow to use our weather pages